Simultaneous Nadir Overpasses (SNOs) Predictions

Prediction of SNOs between GOES-16 and METOP-C Satellite Orbit:

Table of predicted SNOs for the next 14.0 days since TLE Epoch: 9/10/2022
Index Date Time (GOES-16) GOES-16 Lat,Lon METOP-C Lat,Lon Distance(km) Time Diff (sec)
1 09/10/2022 02:47:17 0.04, -75.18 -0.91, -79.45 485.70 80
2 09/11/2022 02:26:36 0.04, -75.19 0.18, -74.45 84.07 80
3 09/12/2022 14:45:27 -0.04, -75.21 0.82, -79.01 433.06 80
4 09/13/2022 14:27:26 -0.04, -75.22 -0.28, -74.01 137.23 80
5 09/15/2022 02:46:26 0.04, -75.22 -0.71, -78.61 386.40 80
6 09/16/2022 02:23:06 0.04, -75.23 0.38, -73.61 184.03 80
7 09/17/2022 14:41:56 -0.03, -75.26 0.60, -78.18 332.15 80
8 09/18/2022 14:23:56 -0.03, -75.27 -0.50, -73.18 238.60 80
9 09/20/2022 02:42:55 0.03, -75.28 -0.55, -77.77 284.21 80
10 09/21/2022 02:19:36 0.03, -75.30 0.61, -72.79 286.81 80
11 09/22/2022 14:41:05 -0.02, -75.34 0.42, -77.34 228.23 80
12 09/23/2022 14:17:44 -0.02, -75.35 -0.69, -72.34 343.26 80
